星链-4031 (STARLINK-4031 )

导读 | 星芒AI

STARLINK-4031 是 SpaceX 星链计划中的一颗低轨通信卫星,属于第5批发射的星链卫星群。该卫星运行在约550公里高度的近地轨道,旨在为全球用户提供高速互联网服务。它采用先进的推进系统和激光通信技术,具备自动避障能力,以确保运行安全。作为星链星座的重要组成部分,STARLINK-4031 有助于提升网络覆盖范围和连接质量,特别是在偏远和网络基础设施薄弱的地区。

基本信息
目录编号:
52679
目录名称:
STARLINK-4031
国际标识:
2022-053Z
轨道中心:
EARTH
卫星名称:
星链-4031
卫星全名:
星链-4031 (STARLINK-4031 )
卫星状态:
在轨 (已飞行1313 天)
发射日期:
2022-05-18 UTC
国别 :
美国 (US)
星等 :
--
轨道信息
数据来源 国际轨道数据
星历时间: 2025-12-21T01:21:02+0800
12小时前
查看轨道信息
半长轴: 6917.887km
偏心率: 0.0001185
轨道倾角: 53.218°
近地点辐角 86.800°
升交点赤经 138.615°
平近点角 273.313°
近地点: 538.93km
远地点: 540.57km
周期: 95.438分钟
每日圈数: 15.088381
详细信息
固有亮度:
5
最大亮度:
2.5
卫星平台:
Starlink v1.5
覆盖范围:
全球
运营商:
太空探索技术公司
运营商所在国:
美国
制造商(研发单位):
太空探索技术公司
制造商所在国:
美国
使用方式:
暂无
卫星简介
星链(Starlink)计划是由太空探索技术公司(SpaceX)提出的一个巨型低轨卫星互联网星座项目,计划在2019年至2024年间在太空搭建由约1.2万颗卫星组成的“星链”网络,其中1584颗将部署在地球上空550千米处的近地轨道,并从2020年开始工作。该卫星仍在工作。
2D轨道图
3D轨道图
轨道高度分析图
轨道倾角分析图
轨道综合分析图
查看轨道综合分析图